JQ1YUX-13 Weather Reports


Display with metric or nautical units.
time (UTC)temp
F
wind
direction
speed
MPH
gust
MPH
rain 1hr
in
rain 24hr
in
rain mn
in
humidity
%
barometer
mb
20260504175733 58 341 7.0 12.0 0.00 0.17 0.00 57 1012.9
20260504174231 58 345 6.0 10.0 0.00 0.17 0.00 58 1012.5
20260504172732 58 6 6.0 8.0 0.00 0.17 0.00 57 1012.2
20260504171232 58 4 7.0 12.0 0.00 0.17 0.00 57 1011.7
20260504141232 64 16 5.0 8.0 0.00 0.19 0.19 57 1007.3
20260504081232 76 206 7.0 14.0 0.00 0.19 0.19 47 996.1
20260504045731 80 207 12.0 20.0 0.00 0.19 0.19 61 993.4
20260504044232 81 211 13.0 26.0 0.00 0.19 0.19 61 993.4
20260504042732 81 202 10.0 23.0 0.00 0.19 0.19 60 993.5
20260504041231 81 208 15.0 23.0 0.00 0.19 0.19 60 993.6
20260504035732 82 212 10.0 23.0 0.00 0.19 0.19 62 993.7
20260504034233 81 205 13.0 18.0 0.00 0.19 0.19 61 994.0
20260504032731 81 198 12.0 18.0 0.00 0.19 0.19 61 993.9
20260504031232 83 203 9.0 18.0 0.00 0.19 0.19 61 994.5
20260504025732 83 196 10.0 18.0 0.00 0.19 0.19 63 994.9
20260504024231 82 200 6.0 12.0 0.00 0.19 0.19 65 995.1
20260504022731 82 237 9.0 12.0 0.00 0.19 0.19 66 995.2
20260504021232 82 194 7.0 16.0 0.00 0.19 0.19 67 995.1
20260504015733 81 209 9.0 20.0 0.00 0.19 0.19 68 995.2
20260504014231 80 230 7.0 13.0 0.00 0.19 0.19 70 995.6
20260504012732 80 196 9.0 15.0 0.00 0.19 0.19 72 995.6
20260504011842 79 215 8.0 12.0 0.00 0.19 0.19 72 995.6
20260504011233 80 213 10.0 14.0 0.00 0.19 0.19 72 995.6
20260504005731 80 214 8.0 13.0 0.00 0.19 0.19 74 995.7
20260504004232 79 214 6.0 16.0 0.00 0.19 0.19 75 995.8
20260504002733 79 216 10.0 13.0 0.00 0.19 0.19 77 995.7
20260504001231 78 206 8.0 23.0 0.00 0.19 0.19 80 995.7
20260503235732 77 198 12.0 21.0 0.00 0.19 0.19 82 995.8
20260503234233 75 195 12.0 25.0 0.00 0.19 0.19 85 995.7
20260503232731 75 209 10.0 20.0 0.00 0.19 0.19 87 995.6
20260503231232 75 203 9.0 13.0 0.00 0.19 0.19 88 995.7
20260503225733 74 206 7.0 9.0 0.00 0.19 0.19 88 995.9
20260503224231 74 203 10.0 23.0 0.00 0.19 0.19 89 995.9
20260503222733 74 193 10.0 12.0 0.00 0.19 0.19 90 996.2
20260503221231 73 221 10.0 24.0 0.00 0.19 0.19 90 995.9
20260503215732 73 212 10.0 18.0 0.00 0.19 0.19 90 995.6
20260503214233 72 204 12.0 35.0 0.01 0.19 0.19 90 995.2
20260503212731 71 192 14.0 24.0 0.01 0.19 0.19 90 995.0
20260503211232 70 201 10.0 15.0 0.06 0.19 0.19 90 995.5
20260503205732 70 211 8.0 18.0 0.11 0.19 0.19 90 995.4
20260503204232 70 184 10.0 23.0 0.13 0.18 0.18 90 995.7
20260503202731 70 192 9.0 18.0 0.13 0.18 0.18 90 995.7
20260503201232 70 203 9.0 9.0 0.07 0.13 0.13 90 996.1
20260503195732 71 187 10.0 24.0 0.02 0.08 0.08 90 996.3
20260503194231 71 207 10.0 18.0 0.00 0.06 0.06 90 996.4
20260503192732 70 204 10.0 24.0 0.01 0.06 0.06 90 996.5
20260503191231 70 205 14.0 23.0 0.02 0.06 0.06 90 996.7
20260503185731 70 191 8.0 16.0 0.03 0.06 0.06 90 997.8
20260503184232 70 200 9.0 20.0 0.04 0.06 0.06 90 998.3
20260503182732 69 218 6.0 12.0 0.03 0.05 0.05 90 998.6
20260503181231 68 217 6.0 7.0 0.02 0.04 0.04 90 998.9